This is the latest recevied weather packets stored in our database for station/object KF0TNT. If no packets are shown the sender has not sent any weather packets the latest 10 day(s).
| Time | Temp. | Humidity | Pressure | Rain* | Wind** | Luminosity | Snow |
|---|---|---|---|---|---|---|---|
| 1777853982 | 16.67° C | 22% | 1015.4 hPa | 0 mm | - | 66 W/m² | - |
| 1777853679 | 17.22° C | 22% | 1015.6 hPa | 0 mm | - | 68 W/m² | - |
| 1777853376 | 17.22° C | 21% | 1015.6 hPa | 0 mm | - | 72 W/m² | - |
| 1777853073 | 17.78° C | 20% | 1015.5 hPa | 0 mm | - | 72 W/m² | - |
| 1777852770 | 17.78° C | 21% | 1015.4 hPa | 0 mm | - | 73 W/m² | - |
| 1777852468 | 17.78° C | 21% | 1015.4 hPa | 0 mm | - | 82 W/m² | - |
| 1777852165 | 17.78° C | 20% | 1015.3 hPa | 0 mm | - | 103 W/m² | - |
| 1777851863 | 17.78° C | 21% | 1015.4 hPa | 0 mm | - | 129 W/m² | - |
| 1777851560 | 17.78° C | 21% | 1015.6 hPa | 0 mm | - | 99 W/m² | - |
| 1777851257 | 17.78° C | 21% | 1015.8 hPa | 0 mm | - | 103 W/m² | - |
| 1777850953 | 17.78° C | 20% | 1015.4 hPa | 0 mm | - | 110 W/m² | - |
| 1777850650 | 17.78° C | 20% | 1015.6 hPa | 0 mm | - | 113 W/m² | - |
| 1777850348 | 17.78° C | 19% | 1015.6 hPa | 0 mm | - | 134 W/m² | - |
| 1777850045 | 17.78° C | 19% | 1015.4 hPa | 0 mm | - | 280 W/m² | - |
| 1777849741 | 17.78° C | 19% | 1015.6 hPa | 0 mm | - | 162 W/m² | - |
| 1777849438 | 18.33° C | 20% | 1015.6 hPa | 0 mm | - | 137 W/m² | - |
| 1777849136 | 18.33° C | 19% | 1015.6 hPa | 0 mm | - | 117 W/m² | - |
| 1777848832 | 18.33° C | 19% | 1015.8 hPa | 0 mm | - | 278 W/m² | - |
| 1777848528 | 17.78° C | 19% | 1015.5 hPa | 0 mm | - | 138 W/m² | - |
| 1777848225 | 17.78° C | 19% | 1015.6 hPa | 0 mm | - | 138 W/m² | - |
| 1777847923 | 17.78° C | 19% | 1015.8 hPa | 0 mm | - | 151 W/m² | - |
| 1777847620 | 17.78° C | 18% | 1015.9 hPa | 0 mm | - | 159 W/m² | - |
| 1777847316 | 17.22° C | 19% | 1015.6 hPa | 0 mm | - | 173 W/m² | - |
| 1777847015 | 17.78° C | 20% | 1015.8 hPa | 0 mm | - | 204 W/m² | - |
| 1777846712 | 17.78° C | 19% | 1016 hPa | 0 mm | - | 211 W/m² | - |
* Rain latest hour (hover to see other rain measurements)
** Current wind speed in m/s (hover to see current wind gust speed)